{"data":{"norad_id":61600,"intl_designator":"2024-188G","name":"ONEWEB-0692","alt_names":[],"object_type":"PAYLOAD","status":"ACTIVE","operator":null,"country":"UK","launch_date":"2024-10-20","launch_site_code":"AFWTR","launch_vehicle":null,"mission":null,"orbit_class":"UNKNOWN","rcs_meters":null,"size_class":null,"mass_kg":null,"dimensions":null,"purposes":["comms"],"wikipedia_slug":null,"has_3d_model":false,"image_url":null,"decayed_at":null,"tle_current":{"epoch":"2026-09-19T12:27:24.295680Z","epoch_age_seconds":103107,"freshness":"FRESH","line1":"1 61600U 24188G   26262.51903120  .00000070  00000+0  16101-3 0  9993","line2":"2 61600  87.8959   2.3295 0001047  95.6267 264.4980 13.11414261 96832","mean_motion":13.11414261,"eccentricity":0.0001047,"inclination_deg":87.8959,"raan_deg":2.3295,"arg_perigee_deg":95.6267,"mean_anomaly_deg":264.498,"bstar":0.00016101,"rev_number":9683,"period_min":109.80511977214,"perigee_km":1216.8977789291,"apogee_km":1218.4883457442,"semimajor_km":7595.8300623366,"source":"CELESTRAK","updated_at":"2026-09-20T09:00:44.799268Z"}}}